When you browse on this site, cookies collect data to enhance your experience and personalize the content and advertising you see.
Visit our Privacy Policy to learn more. By continuing to use the site, you agree to this use of cookies and data.
  • In Austria
  • List of Countries
  • For 7 days
  • Water Temperature
  • Satellite Maps
  • Weather Map
  • News
  • Weather Widgets
  • user-avatar
    Login

    Hourly Weather Porto

    Today, 25 March, Monday

    Time Temperature Precipitation Wind Pressure Humidity
    00:00 +17°C° 0 mm 3 mps 759 mmHg 45%
    01:00 +16°C° 0 mm 3 mps 759 mmHg 45%
    02:00 +15°C° 0 mm 4 mps 759 mmHg 44%
    03:00 +15°C° 0 mm 4 mps 759 mmHg 47%
    04:00 +14°C° 0 mm 4 mps 759 mmHg 49%
    05:00 +14°C° 0 mm 3 mps 759 mmHg 51%
    06:00 +16°C° 0 mm 3 mps 759 mmHg 48%
    07:00 +17°C° 0 mm 3 mps 759 mmHg 45%
    08:00 +18°C° 0 mm 3 mps 759 mmHg 42%
    09:00 +20°C° 0 mm 3 mps 759 mmHg 38%
    10:00 +23°C° 0 mm 2 mps 759 mmHg 34%
    11:00 +25°C° 0 mm 2 mps 758 mmHg 29%
    12:00 +26°C° 0 mm 3 mps 758 mmHg 28%
    13:00 +26°C° 0 mm 3 mps 757 mmHg 26%
    14:00 +27°C° 0 mm 4 mps 757 mmHg 24%
    15:00 +26°C° 0 mm 4 mps 757 mmHg 27%
    16:00 +25°C° 0 mm 4 mps 756 mmHg 29%
    17:00 +23°C° 0 mm 4 mps 756 mmHg 32%
    18:00 +21°C° 0 mm 4 mps 757 mmHg 33%
    19:00 +20°C° 0 mm 5 mps 757 mmHg 35%
    20:00 +17°C° 0 mm 5 mps 757 mmHg 36%
    21:00 +17°C° 0 mm 6 mps 758 mmHg 35%
    22:00 +16°C° 0 mm 7 mps 758 mmHg 35%
    23:00 +15°C° 0 mm 7 mps 758 mmHg 34%

    Tomorrow, 26 March, Tuesday

    Time Temperature Precipitation Wind Pressure Humidity
    00:00 +14°C° 0 mm 7 mps 758 mmHg 35%
    01:00 +12°C° 0 mm 8 mps 758 mmHg 36%
    02:00 +11°C° 0 mm 8 mps 757 mmHg 37%
    03:00 +11°C° 0 mm 8 mps 757 mmHg 40%
    04:00 +11°C° 0 mm 7 mps 757 mmHg 44%
    05:00 +10°C° 0 mm 7 mps 757 mmHg 48%
    06:00 +11°C° 0 mm 7 mps 757 mmHg 46%
    07:00 +12°C° 0 mm 7 mps 757 mmHg 44%
    08:00 +14°C° 0 mm 7 mps 757 mmHg 42%
    09:00 +16°C° 0 mm 7 mps 757 mmHg 36%
    10:00 +19°C° 0 mm 6 mps 756 mmHg 31%
    11:00 +20°C° 0 mm 6 mps 756 mmHg 25%
    12:00 +21°C° 0 mm 6 mps 756 mmHg 23%
    13:00 +22°C° 0 mm 6 mps 755 mmHg 21%
    14:00 +23°C° 0 mm 5 mps 755 mmHg 19%
    15:00 +23°C° 0 mm 5 mps 755 mmHg 22%
    16:00 +22°C° 0 mm 5 mps 755 mmHg 25%
    17:00 +21°C° 0 mm 5 mps 754 mmHg 29%
    18:00 +20°C° 0 mm 5 mps 755 mmHg 27%
    19:00 +19°C° 0 mm 6 mps 756 mmHg 26%
    20:00 +17°C° 0 mm 6 mps 756 mmHg 25%
    21:00 +16°C° 0 mm 7 mps 757 mmHg 26%
    22:00 +15°C° 0 mm 7 mps 757 mmHg 27%
    23:00 +14°C° 0 mm 7 mps 757 mmHg 28%

    Day after tomorrow, 27 March, Wednesday

    Time Temperature Precipitation Wind Pressure Humidity
    00:00 +12°C° 0 mm 7 mps 758 mmHg 30%
    01:00 +12°C° 0 mm 7 mps 758 mmHg 32%
    02:00 +11°C° 0 mm 6 mps 758 mmHg 34%
    03:00 +10°C° 0 mm 6 mps 759 mmHg 36%
    04:00 +10°C° 0 mm 5 mps 759 mmHg 39%
    05:00 +10°C° 0 mm 4 mps 759 mmHg 41%
    06:00 +11°C° 0 mm 4 mps 760 mmHg 40%
    07:00 +12°C° 0 mm 4 mps 760 mmHg 39%
    08:00 +14°C° 0 mm 4 mps 760 mmHg 37%
    09:00 +16°C° 0 mm 3 mps 760 mmHg 33%
    10:00 +18°C° 0 mm 3 mps 760 mmHg 29%
    11:00 +20°C° 0 mm 2 mps 760 mmHg 25%
    12:00 +21°C° 0 mm 3 mps 760 mmHg 24%
    13:00 +22°C° 0 mm 3 mps 760 mmHg 22%
    14:00 +24°C° 0 mm 3 mps 759 mmHg 21%
    15:00 +22°C° 0 mm 3 mps 759 mmHg 23%
    16:00 +22°C° 0 mm 4 mps 759 mmHg 26%
    17:00 +21°C° 0 mm 4 mps 759 mmHg 28%
    18:00 +19°C° 0 mm 4 mps 760 mmHg 31%
    19:00 +18°C° 0 mm 3 mps 760 mmHg 34%
    20:00 +16°C° 0 mm 3 mps 761 mmHg 37%
    21:00 +15°C° 0 mm 4 mps 761 mmHg 38%
    22:00 +14°C° 0 mm 4 mps 761 mmHg 38%
    23:00 +14°C° 0 mm 5 mps 762 mmHg 39%

    28 March, Thursday

    Time Temperature Precipitation Wind Pressure Humidity
    00:00 +13°C° 0 mm 5 mps 762 mmHg 39%
    01:00 +13°C° 0 mm 5 mps 762 mmHg 38%
    02:00 +11°C° 0 mm 6 mps 762 mmHg 38%
    03:00 +11°C° 0 mm 6 mps 762 mmHg 41%
    04:00 +10°C° 0 mm 5 mps 762 mmHg 43%
    05:00 +10°C° 0 mm 5 mps 762 mmHg 46%
    06:00 +12°C° 0 mm 5 mps 763 mmHg 45%
    07:00 +13°C° 0 mm 4 mps 763 mmHg 45%
    08:00 +14°C° 0 mm 4 mps 763 mmHg 44%
    09:00 +17°C° 0 mm 3 mps 763 mmHg 40%
    10:00 +19°C° 0 mm 3 mps 763 mmHg 35%
    11:00 +21°C° 0 mm 2 mps 763 mmHg 31%
    12:00 +21°C° 0 mm 2 mps 762 mmHg 30%
    13:00 +23°C° 0 mm 2 mps 761 mmHg 29%
    14:00 +24°C° 0 mm 2 mps 761 mmHg 28%
    15:00 +22°C° 0 mm 3 mps 761 mmHg 32%
    16:00 +21°C° 0 mm 3 mps 760 mmHg 35%
    17:00 +20°C° 0 mm 3 mps 760 mmHg 39%
    18:00 +19°C° 0 mm 3 mps 761 mmHg 42%
    19:00 +17°C° 0 mm 3 mps 761 mmHg 46%
    20:00 +16°C° 0 mm 3 mps 761 mmHg 49%
    21:00 +15°C° 0 mm 2 mps 761 mmHg 50%
    22:00 +15°C° 0 mm 2 mps 761 mmHg 50%
    23:00 +15°C° 0 mm 2 mps 761 mmHg 51%

    29 March, Friday

    Time Temperature Precipitation Wind Pressure Humidity
    00:00 +14°C° 0 mm 2 mps 761 mmHg 52%
    01:00 +13°C° 0 mm 3 mps 761 mmHg 53%
    02:00 +13°C° 0 mm 3 mps 761 mmHg 54%
    03:00 +12°C° 0 mm 3 mps 761 mmHg 56%
    04:00 +12°C° 0 mm 3 mps 761 mmHg 58%
    05:00 +12°C° 0 mm 3 mps 761 mmHg 60%
    06:00 +14°C° 0 mm 2 mps 761 mmHg 56%
    07:00 +15°C° 0 mm 2 mps 761 mmHg 53%
    08:00 +17°C° 0 mm 2 mps 761 mmHg 49%
    09:00 +20°C° 0 mm 1 mps 761 mmHg 43%
    10:00 +22°C° 0 mm 1 mps 761 mmHg 36%
    11:00 +25°C° 0 mm 1 mps 760 mmHg 30%
    12:00 +25°C° 0 mm 2 mps 760 mmHg 30%
    13:00 +24°C° 0 mm 3 mps 759 mmHg 30%
    14:00 +23°C° 0 mm 4 mps 759 mmHg 30%
    15:00 +22°C° 0 mm 4 mps 759 mmHg 33%
    16:00 +21°C° 0 mm 4 mps 758 mmHg 36%
    17:00 +20°C° 0 mm 4 mps 758 mmHg 39%
    18:00 +18°C° 0 mm 4 mps 759 mmHg 42%
    19:00 +17°C° 0 mm 3 mps 759 mmHg 45%
    20:00 +16°C° 0 mm 3 mps 759 mmHg 48%
    21:00 +16°C° 0 mm 2 mps 759 mmHg 51%
    22:00 +15°C° 0 mm 2 mps 759 mmHg 53%
    23:00 +15°C° 0 mm 1 mps 759 mmHg 56%

    30 March, Saturday

    Time Temperature Precipitation Wind Pressure Humidity
    00:00 +15°C° 0 mm 1 mps 759 mmHg 56%
    01:00 +15°C° 0 mm 1 mps 758 mmHg 56%
    02:00 +14°C° 0 mm 1 mps 758 mmHg 56%
    03:00 +14°C° 0 mm 1 mps 758 mmHg 55%
    04:00 +14°C° 0 mm 1 mps 758 mmHg 55%
    05:00 +14°C° 0 mm 1 mps 758 mmHg 54%
    06:00 +16°C° 0 mm 1 mps 758 mmHg 51%
    07:00 +18°C° 0 mm 1 mps 758 mmHg 48%
    08:00 +19°C° 0 mm 1 mps 758 mmHg 45%
    09:00 +20°C° 0 mm 1 mps 758 mmHg 41%
    10:00 +22°C° 0 mm 1 mps 758 mmHg 37%
    11:00 +24°C° 0 mm 2 mps 758 mmHg 33%
    12:00 +22°C° 0 mm 3 mps 757 mmHg 34%
    13:00 +22°C° 0 mm 3 mps 757 mmHg 35%
    14:00 +22°C° 0 mm 4 mps 756 mmHg 36%
    15:00 +21°C° 0 mm 4 mps 756 mmHg 41%
    16:00 +20°C° 0 mm 4 mps 756 mmHg 45%
    17:00 +19°C° 0 mm 4 mps 756 mmHg 50%
    18:00 +18°C° 0 mm 3 mps 756 mmHg 55%
    19:00 +17°C° 0 mm 3 mps 756 mmHg 59%
    20:00 +16°C° 0 mm 2 mps 757 mmHg 64%
    21:00 +15°C° 0 mm 2 mps 756 mmHg 63%
    22:00 +15°C° 0 mm 2 mps 756 mmHg 63%
    23:00 +15°C° 0 mm 2 mps 756 mmHg 62%
    Show more